This is the latest recevied weather packets stored in our database for station/object WI0K. If no packets are shown the sender has not sent any weather packets the latest 10 day(s).
| Time | Temp. | Humidity | Pressure | Rain* | Wind** | Luminosity | Snow |
|---|---|---|---|---|---|---|---|
| 1788110833 | 25° C | 44% | 1019.4 hPa | 0 mm | - | 495 W/m² | - |
| 1788110532 | 25.56° C | 44% | 1019.5 hPa | 0 mm | - | 568 W/m² | - |
| 1788110231 | 25° C | 46% | 1019.5 hPa | 0 mm | - | 883 W/m² | - |
| 1788109930 | 25° C | 47% | 1019.5 hPa | 0 mm | - | 765 W/m² | - |
| 1788109630 | 24.44° C | 46% | 1019.4 hPa | 0 mm | - | 645 W/m² | - |
| 1788109329 | 23.89° C | 44% | 1019.5 hPa | 0 mm | - | 470 W/m² | - |
| 1788109028 | 23.89° C | 46% | 1019.6 hPa | 0 mm | - | 572 W/m² | - |
| 1788108728 | 23.89° C | 47% | 1019.6 hPa | 0 mm | - | 690 W/m² | - |
| 1788108427 | 23.33° C | 46% | 1019.7 hPa | 0 mm | - | 505 W/m² | - |
| 1788108126 | 23.33° C | 47% | 1019.8 hPa | 0 mm | - | 623 W/m² | - |
| 1788107825 | 22.78° C | 49% | 832.7 hPa | 0 mm | - | 547 W/m² | - |
| 1788107524 | 22.22° C | 52% | 1019.9 hPa | 0 mm | - | 489 W/m² | - |
| 1788107231 | 22.22° C | 53% | 1020.1 hPa | 0 mm | - | 398 W/m² | - |
| 1788106923 | 21.67° C | 48% | 1020.1 hPa | 0 mm | - | 410 W/m² | - |
| 1788106622 | 21.67° C | 52% | 1020.2 hPa | 0 mm | - | 340 W/m² | - |
| 1788106322 | 21.67° C | 52% | 1020.1 hPa | 0 mm | - | 357 W/m² | - |
| 1788106021 | 21.11° C | 52% | 1020.1 hPa | 0 mm | - | 318 W/m² | - |
| 1788105720 | 21.11° C | 51% | 1020.2 hPa | 0 mm | - | 328 W/m² | - |
| 1788105419 | 21.11° C | 52% | 1020.2 hPa | 0 mm | - | 356 W/m² | - |
| 1788105119 | 20.56° C | 53% | 1020.1 hPa | 0 mm | - | 350 W/m² | - |
| 1788104818 | 20.56° C | 54% | 1019.9 hPa | 0 mm | - | 281 W/m² | - |
| 1788104517 | 20.56° C | 57% | 1019.8 hPa | 0 mm | - | 296 W/m² | - |
| 1788104216 | 20° C | 54% | 1019.7 hPa | 0 mm | - | 270 W/m² | - |
| 1788103916 | 20° C | 55% | 1019.7 hPa | 0 mm | - | 236 W/m² | - |
| 1788103615 | 20° C | 55% | 1019.6 hPa | 0 mm | - | 234 W/m² | - |
* Rain latest hour (hover to see other rain measurements)
** Current wind speed in m/s (hover to see current wind gust speed)